Regional Weather Roundup
Issued by NWS

Home | Current Version | Previous Version | Graphics & Text | Print | Product List | Glossary Off
Versions: 1 2 3 4 5 6 7 8 9 10 11 12 13 14 15 16 17 18 19 20 21 22 23 24 25 26 27 28 29 30 31 32 33 34 35 36 37 38 39 40 41 42 43 44 45 46 47 48 49 50

000
ASUS45 KBOU 060810
RWRCO

WEATHER ROUNDUP FOR COLORADO
NATIONAL WEATHER SERVICE DENVER/BOULDER CO
200 AM MDT MON JUL 06 2015

NOTE: "FAIR" INDICATES FEW OR NO CLOUDS BELOW 12000 FEET WITH NO
SIGNIFICANT WEATHER AND/OR OBSTRUCTIONS TO VISIBILITY.

COZ001>005-013-030-031-060900-
...NORTHWEST COLORADO...

CITY           SKY/WX    TMP DP  RH WIND       PRES   REMARKS
CRAIG          CLEAR     53  51  93 CALM      30.22S
HAYDEN         CLEAR     54  48  82 SE5       30.23S
MEEKER         MOCLDY    55  52  89 CALM      30.23R
MOUNT WERNER   NOT AVBL
STEAMBOAT SPGS CLOUDY    52  52  99 CALM      30.25F VSB 1/4
WALDEN         MOCLDY    50  46  87 SE6       30.31S
$$

COZ006>008-011-060900-
...WEST CENTRAL VALLEYS...

CITY           SKY/WX    TMP DP  RH WIND       PRES   REMARKS
GRAND JUNCTION CLOUDY    65  59  81 S3        30.11S
MONTROSE       MOCLDY    59  55  87 S6        30.20F
EAGLE          PTCLDY    57  55  94 E3        30.27R
RIFLE          MOCLDY    60  55  83 NE5       30.18R
DELTA          MOCLDY    62  58  87 E7        30.15F
NUCLA          MOCLDY    61  55  82 SE9       30.22F
$$

COZ017>023-064>068-060900-
...SOUTHWEST COLORADO...

CITY           SKY/WX    TMP DP  RH WIND       PRES   REMARKS
DURANGO        MOCLDY    60  50  69 N7        30.19S
CORTEZ         CLEAR     64  53  67 N7        30.17F
PAGOSA SPRINGS MOCLDY    58  51  77 CALM      30.27S
TELLURIDE      CLOUDY    51  49  95 SE6       30.41F
WOLF CREEK PAS NOT AVBL
$$

COZ009-010-012-014-032>034-037-058>063-060900-
...CENTRAL COLORADO...

CITY           SKY/WX    TMP DP  RH WIND       PRES   REMARKS
ASPEN          PTCLDY    52  49  89 S5        30.30S
BUENA VISTA    MOCLDY    60  48  65 NW7       30.26F
COPPER MTN     MOCLDY    46  41  81 W9        30.56F
BERTHOUD PASS  HAZE      37  30  75 NW17G24   30.59S VSB<1/4
COTTONWOOD PAS NOT AVBL
GUNNISON       PTCLDY    54  48  82 N6        30.32F
KREMMLING      MOCLDY    54  50  87 CALM      30.29S
LEADVILLE      MOCLDY    48  47  96 CALM      30.42S
MONARCH PASS   DRIZZLE   45  41  87 W16       30.64F
SALIDA         CLOUDY    64  52  65 CALM      30.30S
SUNLIGHT       MOCLDY    50  45  81 N5        30.53S
WILKERSON PASS CLOUDY    50  37  62 NW6       30.53R
$$

COZ069>075-060900-
...SAN LUIS VALLEY/SANGRE DE CRISTO MOUNTAINS...

CITY           SKY/WX    TMP DP  RH WIND       PRES   REMARKS
ALAMOSA        CLOUDY    58  54  86 S5        30.25F
LA VETA PASS   LGT RAIN  46  45  93 MISG      30.44R
SAGUACHE       MOCLDY    55  54  94 E6        30.29R
$$

COZ035-036-038>040-060900-
...NORTHERN COLORADO FRONT RANGE...

CITY           SKY/WX    TMP DP  RH WIND       PRES   REMARKS
DENVER INTL AP CLOUDY    63  58  83 N9        30.15R
DMNS CITY PARK   N/A     64  59  85 E10       30.15S
AURORA         LGT RAIN  62  62 100 NE6       30.18S
FRONT RANGE AP NOT AVBL
ERIE MUNI ARPT CLOUDY    64  59  84 N7        30.15R
BOULDER MUN AP CLOUDY    64  61  88 CALM      30.16R
CENTENNIAL     CLOUDY    63  58  83 N12       30.18R
BROOMFIELD     DRIZZLE   63  59  88 NE8       30.18R
FORT COLLINS   CLOUDY    64  57  77 N10       30.16R
LONGMONT       LGT RAIN  66  61  83 E5        30.16R
$$

COZ041-046-047-076>085-087-088-060900-
...PIKES PEAK/PALMER DIVIDE AND SOUTHERN FOOTHILLS...

CITY           SKY/WX    TMP DP  RH WIND       PRES   REMARKS
COLO. SPRINGS  LGT RAIN  63  58  83 NE18      30.18R
A. F. ACADEMY  CLOUDY    61  57  86 N14       30.19R
ELLICOTT       CLOUDY   N/A N/A N/A N10       30.15S
FALCON         CLOUDY    59  57  92 N14G20    30.22R
FORT CARSON    CLOUDY    63  59  88 NE10      30.15R
LIMON          CLOUDY    62  59  90 NW10      30.12R
MONUMENT HILL  NOT AVBL
TRINIDAD       CLOUDY    66  57  72 N6        30.14R
$$

COZ042>045-048>051-090-091-060900-
...NORTHEAST COLORADO...

CITY           SKY/WX    TMP DP  RH WIND       PRES   REMARKS
GREELEY ARPT   CLOUDY    64  57  77 N17       30.13R
AKRON          CLOUDY    64  62  93 NW13      30.07R
BURLINGTON     CLOUDY    67  61  81 N13       29.97F
WRAY           CLOUDY    68  66  95 N10G17    29.99R
STERLING       CLOUDY    66  63  88 N12         N/A
HOLYOKE        CLOUDY    66  63  88 N10       30.01R
FORT MORGAN    CLOUDY    64  57  80 N17       30.08F
$$

COZ086-089-092>099-060900-
...SOUTHEAST COLORADO...

CITY           SKY/WX    TMP DP  RH WIND       PRES   REMARKS
PUEBLO         LGT RAIN  71  60  68 NE8       30.07R
LA JUNTA       CLOUDY    68  63  84 N15G22    29.99S
LAMAR          CLOUDY    74  60  61 N17G25    29.90F
SPRINGFIELD      N/A     72  59  63 NW10      29.96R
$$



USA.gov is the U.S. government's official web portal to all federal, state and local government web resources and services.